Amateur Radio Satellites - All Passes

Search period start: 25 May 2013 13:36
Search period end: 26 May 2013 13:36
Location: Observatoire de l'Aigle, 47.0607°N, 71.3152°W

Satellite Date Start Highest point End Downlink Frequencies (MHz)
Time Altitude Azimuth
PCSat 25 May 13:36:40 13:40:05 17° 30° (NNE) 13:43:30 145.825 MHz
ITAMSAT 1 25 May 13:39:29 13:44:38 74° 73° (ENE) 13:49:51 435.822 SSB
RS-15 25 May 13:45:12 13:48:29 12° 92° (E) 13:51:43 29.354 - 29.394 USB, Beacon 29.352 USB
TMSAT-1 25 May 13:54:33 13:56:25 12° 53° (NE) 13:58:18 436.925 FM
Uosat F 25 May 13:55:36 13:59:06 19° 59° (ENE) 14:02:36 435.120 FM
AO-Echo 25 May 13:59:07 14:03:33 39° 68° (ENE) 14:07:56 ?
Sapphire 25 May 14:09:30 14:13:46 23° 37° (NE) 14:18:01 437.095 MHz 1200 baud AX-25 AFSK
UOSAT-12 25 May 14:13:16 14:14:42 11° 342° (NNW) 14:16:09 437.025 FM, 437.400 FM
AO-7 25 May 14:13:59 14:19:04 18° 41° (NE) 14:24:10 29.400 - 29.500 MHz
Gurwin Techsat 1B 25 May 14:15:18 14:19:29 24° 61° (ENE) 14:23:42 435.225 FM
Oscar 19 25 May 14:17:31 14:22:30 46° 261° (W) 14:27:31 437.125 CW, 437.150 USB
Uribyol 2 25 May 14:20:06 14:25:06 49° 261° (W) 14:30:10 436.500 FM
Saudisat 1A 25 May 14:27:52 14:31:53 31° 243° (WSW) 14:35:50 436.775 MHz
SO-50 25 May 14:52:15 14:55:39 20° 32° (NNE) 14:58:59 436.795 FM
Oscar 16 25 May 14:59:20 15:02:54 18° 270° (W) 15:06:28 437.025 USB, Beacon 2401.1428
AO-27 25 May 15:15:19 15:18:46 18° 270° (W) 15:22:14 436.795 MHz FM
PCSat 25 May 15:19:18 15:24:41 59° 52° (NE) 15:30:03 145.825 MHz
ITAMSAT 1 25 May 15:21:35 15:24:44 16° 271° (W) 15:27:55 435.822 SSB
TMSAT-1 25 May 15:30:09 15:35:24 67° 72° (ENE) 15:40:40 436.925 FM
Uosat F 25 May 15:32:28 15:37:26 66° 258° (WSW) 15:42:26 435.120 FM
AO-Echo 25 May 15:38:26 15:42:28 27° 266° (W) 15:46:29 ?
RS-15 25 May 15:46:36 15:58:05 54° 114° (ESE) 16:09:05 29.354 - 29.394 USB, Beacon 29.352 USB
Sapphire 25 May 15:52:26 15:57:54 86° 238° (WSW) 16:03:20 437.095 MHz 1200 baud AX-25 AFSK
Gurwin Techsat 1B 25 May 15:53:56 15:59:07 55° 260° (W) 16:04:22 435.225 FM
AO-7 25 May 16:02:10 16:10:16 61° 64° (ENE) 16:18:26 29.400 - 29.500 MHz
SO-50 25 May 16:32:20 16:36:56 90° 45° (NE) 16:41:25 436.795 FM
PCSat 25 May 17:03:25 17:07:44 25° 251° (WSW) 17:12:02 145.825 MHz
TMSAT-1 25 May 17:12:12 17:15:50 19° 270° (W) 17:19:30 436.925 FM
UOSAT-12 25 May 17:35:44 17:39:05 19° 32° (NNE) 17:42:26 437.025 FM, 437.400 FM
Sapphire 25 May 17:37:48 17:40:31 14° 257° (WSW) 17:43:13 437.095 MHz 1200 baud AX-25 AFSK
JAS-1B 25 May 17:46:00 17:52:20 24° 56° (ENE) 17:57:58 435.800 - 435.900 CW/SSB
AO-7 25 May 17:56:06 18:03:29 35° 264° (W) 18:10:58 29.400 - 29.500 MHz
RS-15 25 May 17:58:50 18:10:34 59° 319° (NW) 18:21:48 29.354 - 29.394 USB, Beacon 29.352 USB
SO-50 25 May 18:14:57 18:16:49 12° 252° (WSW) 18:18:41 436.795 FM
Hamsat 25 May 18:22:33 18:26:30 40° 70° (ENE) 18:30:31 145.90 MHz
HO-68 25 May 18:38:57 18:41:01 11° 40° (NE) 18:43:06 435.675 MHz FM
SO-67 25 May 18:44:37 18:47:21 21° 67° (ENE) 18:50:06 435.3500 MHz FM
STRAND 1 25 May 18:47:18 18:52:10 41° 98° (E) 18:57:00 ?
JAS-2 25 May 18:53:08 18:54:34 11° 41° (NE) 18:56:00 435.800 - 435.900 CW/SSB, 435.910 FM
UOSAT-12 25 May 19:15:18 19:19:56 86° 52° (NE) 19:24:33 437.025 FM, 437.400 FM
JAS-1B 25 May 19:33:18 19:42:17 89° 254° (WSW) 19:49:48 435.800 - 435.900 CW/SSB
Hamsat 25 May 19:59:32 20:02:46 21° 268° (W) 20:06:02 145.90 MHz
RS-15 25 May 20:15:47 20:25:56 33° 350° (N) 20:35:43 29.354 - 29.394 USB, Beacon 29.352 USB
SO-67 25 May 20:17:31 20:20:40 29° 264° (W) 20:23:51 435.3500 MHz FM
HO-68 25 May 20:20:18 20:26:58 45° 62° (ENE) 20:33:40 435.675 MHz FM
STRAND 1 25 May 20:26:47 20:31:14 30° 296° (WNW) 20:35:41 ?
Oscar 11 25 May 20:29:53 20:32:50 18° 62° (ENE) 20:35:48 145.825 FM, Beacon 2401.500 USB
JAS-2 25 May 20:30:31 20:37:38 40° 62° (ENE) 20:44:39 435.800 - 435.900 CW/SSB, 435.910 FM
UOSAT-12 25 May 20:57:09 20:59:28 14° 251° (WSW) 21:01:47 437.025 FM, 437.400 FM
KITSAT 1 25 May 21:04:06 21:09:18 19° 101° (E) 21:14:31 435.175 FM
OPAL 25 May 21:09:09 21:13:37 30° 61° (ENE) 21:18:03 ?
JAS-1B 25 May 21:27:13 21:33:30 21° 270° (W) 21:39:11 435.800 - 435.900 CW/SSB
Oscar 11 25 May 22:04:28 22:08:41 54° 260° (W) 22:12:58 145.825 FM, Beacon 2401.500 USB
HO-68 25 May 22:08:02 22:14:43 42° 262° (W) 22:21:27 435.675 MHz FM
JAS-2 25 May 22:14:45 22:22:23 55° 261° (W) 22:30:00 435.800 - 435.900 CW/SSB, 435.910 FM
RS-15 25 May 22:31:46 22:42:14 39° 25° (NNE) 22:52:20 29.354 - 29.394 USB, Beacon 29.352 USB
OPAL 25 May 22:47:27 22:52:22 42° 259° (W) 22:57:15 ?
KITSAT 1 25 May 22:55:24 23:03:28 81° 122° (ESE) 23:11:36 435.175 FM
MaSat-1 25 May 23:44:15 23:47:17 14° 102° (ESE) 23:50:07 437.345 MHz
JAS-2 26 May 00:07:02 00:09:00 11° 281° (W) 00:10:58 435.800 - 435.900 CW/SSB, 435.910 FM
RS-15 26 May 00:44:57 00:56:13 88° 54° (NE) 01:07:07 29.354 - 29.394 USB, Beacon 29.352 USB
KITSAT 1 26 May 00:52:28 00:59:43 35° 326° (NW) 01:07:03 435.175 FM
ISS 26 May 00:56:39 00:58:17 13° 134° (SE) 00:59:55 145.800 FM
MaSat-1 26 May 01:22:06 01:28:53 72° 116° (ESE) 01:34:19 437.345 MHz
Oscar 16 26 May 01:27:40 01:31:15 19° 90° (E) 01:34:48 437.025 USB, Beacon 2401.1428
AO-27 26 May 01:44:31 01:48:16 20° 91° (E) 01:51:59 436.795 MHz FM
ITAMSAT 1 26 May 01:50:09 01:54:06 21° 92° (E) 01:58:03 435.822 SSB
AO-40 26 May 02:14:09 03:41:22 26° 233° (SW) 07:03:50 Beacon 2401.320
Oscar 19 26 May 02:25:55 02:30:58 51° 100° (E) 02:35:57 437.125 CW, 437.150 USB
Uribyol 2 26 May 02:29:38 02:34:43 48° 99° (E) 02:39:46 436.500 FM
ISS 26 May 02:31:11 02:34:29 74° 151° (SSE) 02:37:49 145.800 FM
KITSAT 1 26 May 02:52:15 02:57:56 20° 355° (N) 03:03:38 435.175 FM
RS-15 26 May 02:58:32 03:07:05 27° 258° (WSW) 03:15:33 29.354 - 29.394 USB, Beacon 29.352 USB
Oscar 16 26 May 03:05:57 03:11:06 65° 288° (WNW) 03:16:11 437.025 USB, Beacon 2401.1428
MaSat-1 26 May 03:06:06 03:11:18 26° 311° (NW) 03:15:39 437.345 MHz
AO-27 26 May 03:23:03 03:28:14 63° 289° (WNW) 03:33:24 436.795 MHz FM
ITAMSAT 1 26 May 03:28:51 03:34:00 58° 290° (WNW) 03:39:06 435.822 SSB
Uosat F 26 May 03:37:29 03:41:55 30° 95° (E) 03:46:20 435.120 FM
AO-Echo 26 May 03:41:19 03:46:05 75° 103° (ESE) 03:50:58 ?
TMSAT-1 26 May 03:43:44 03:47:45 21° 91° (E) 03:51:45 436.925 FM
AO-7 26 May 04:02:25 04:06:42 15° 85° (E) 04:10:57 29.400 - 29.500 MHz
Oscar 19 26 May 04:05:52 04:10:02 25° 298° (WNW) 04:14:10 437.125 CW, 437.150 USB
Gurwin Techsat 1B 26 May 04:06:59 04:12:09 48° 99° (E) 04:17:16 435.225 FM
ISS 26 May 04:08:14 04:11:23 39° 351° (N) 04:14:34 145.800 FM
Uribyol 2 26 May 04:09:38 04:13:58 27° 298° (WNW) 04:18:18 436.500 FM
STRAND 1 26 May 04:30:37 04:33:01 14° 54° (NE) 04:35:26 ?
Saudisat 1A 26 May 04:37:35 04:41:42 34° 117° (ESE) 04:45:52 436.775 MHz
Oscar 16 26 May 04:48:02 04:49:29 11° 308° (NW) 04:50:56 437.025 USB, Beacon 2401.1428
KITSAT 1 26 May 04:49:55 04:56:34 26° 24° (NNE) 05:03:11 435.175 FM
AO-27 26 May 05:05:21 05:06:46 11° 308° (NW) 05:08:11 436.795 MHz FM
ITAMSAT 1 26 May 05:11:58 05:12:26 10° 309° (NW) 05:12:54 435.822 SSB
Uosat F 26 May 05:16:10 05:20:48 38° 294° (WNW) 05:25:26 435.120 FM
AO-Echo 26 May 05:21:30 05:24:22 16° 301° (WNW) 05:27:15 ?
TMSAT-1 26 May 05:22:52 05:28:05 58° 289° (WNW) 05:33:17 436.925 FM
ISS 26 May 05:45:21 05:48:33 41° 11° (N) 05:51:46 145.800 FM
Gurwin Techsat 1B 26 May 05:47:28 05:51:53 28° 297° (WNW) 05:56:18 435.225 FM
AO-7 26 May 05:52:40 06:01:03 69° 105° (ESE) 06:09:22 29.400 - 29.500 MHz
PCSat 26 May 06:04:57 06:09:29 28° 110° (ESE) 06:14:02 145.825 MHz
STRAND 1 26 May 06:06:20 06:11:25 80° 74° (ENE) 06:16:33 ?
Saudisat 1A 26 May 06:17:03 06:21:22 39° 317° (NW) 06:25:43 436.775 MHz
Sapphire 26 May 06:37:18 06:42:27 48° 115° (ESE) 06:47:39 437.095 MHz 1200 baud AX-25 AFSK
KITSAT 1 26 May 06:45:28 06:53:36 67° 50° (NE) 07:01:41 435.175 FM
SO-50 26 May 06:52:33 06:55:12 15° 110° (ESE) 06:57:50 436.795 FM
TMSAT-1 26 May 07:06:05 07:06:57 10° 309° (NW) 07:07:49 436.925 FM
JAS-1B 26 May 07:17:40 07:21:21 17° 87° (E) 07:24:54 435.800 - 435.900 CW/SSB
ISS 26 May 07:22:05 07:25:24 62° 210° (SSW) 07:28:43 145.800 FM
SO-67 26 May 07:41:39 07:44:10 18° 92° (E) 07:46:39 435.3500 MHz FM
Hamsat 26 May 07:41:41 07:46:00 57° 100° (E) 07:50:19 145.90 MHz
AO-7 26 May 07:46:05 07:53:19 34° 306° (NW) 08:00:32 29.400 - 29.500 MHz
PCSat 26 May 07:47:20 07:52:38 53° 309° (NW) 07:57:58 145.825 MHz
STRAND 1 26 May 07:48:30 07:51:16 15° 272° (W) 07:54:03 ?
Saudisat 1A 26 May 08:00:20 08:02:20 13° 339° (NNW) 08:04:21 436.775 MHz
Sapphire 26 May 08:21:09 08:26:04 34° 316° (NW) 08:31:01 437.095 MHz 1200 baud AX-25 AFSK
SO-50 26 May 08:30:26 08:35:14 84° 308° (NW) 08:39:58 436.795 FM
KITSAT 1 26 May 08:41:27 08:48:30 34° 252° (WSW) 08:55:32 435.175 FM
ISS 26 May 09:00:33 09:01:33 11° 227° (SW) 09:02:32 145.800 FM
JAS-1B 26 May 09:06:53 09:12:56 73° 289° (WNW) 09:18:33 435.800 - 435.900 CW/SSB
SO-67 26 May 09:14:28 09:17:45 34° 289° (WNW) 09:21:01 435.3500 MHz FM
Hamsat 26 May 09:18:46 09:21:41 18° 298° (WNW) 09:24:36 145.90 MHz
JAS-2 26 May 09:23:08 09:28:12 22° 86° (E) 09:32:49 435.800 - 435.900 CW/SSB, 435.910 FM
HO-68 26 May 09:31:57 09:38:20 33° 95° (E) 09:44:40 435.675 MHz FM
UOSAT-12 26 May 09:32:45 09:34:22 12° 108° (ESE) 09:36:00 437.025 FM, 437.400 FM
PCSat 26 May 09:34:11 09:37:21 15° 332° (NNW) 09:40:32 145.825 MHz
AO-7 26 May 09:42:19 09:43:35 10° 331° (NNW) 09:44:50 29.400 - 29.500 MHz
Oscar 11 26 May 09:49:54 09:53:21 22° 93° (E) 09:56:47 145.825 FM, Beacon 2401.500 USB
MaSat-1 26 May 10:04:38 10:08:00 45° 55° (NE) 10:10:43 437.345 MHz
Sapphire 26 May 10:09:16 10:11:14 12° 340° (NNW) 10:13:12 437.095 MHz 1200 baud AX-25 AFSK
SO-50 26 May 10:13:05 10:16:33 20° 328° (NNW) 10:19:59 436.795 FM
OPAL 26 May 10:54:17 10:58:57 38° 100° (E) 11:03:32 ?
JAS-1B 26 May 10:59:41 11:02:25 13° 312° (NW) 11:05:02 435.800 - 435.900 CW/SSB
JAS-2 26 May 11:07:12 11:14:04 71° 289° (WNW) 11:20:04 435.800 - 435.900 CW/SSB, 435.910 FM
UOSAT-12 26 May 11:09:17 11:13:48 86° 126° (SE) 11:18:24 437.025 FM, 437.400 FM
HO-68 26 May 11:19:23 11:26:20 56° 295° (WNW) 11:33:17 435.675 MHz FM
Saudisat 1A 26 May 11:22:50 11:25:50 17° 28° (NNE) 11:28:48 436.775 MHz
Oscar 11 26 May 11:25:38 11:29:45 41° 291° (WNW) 11:33:50 145.825 FM, Beacon 2401.500 USB
Oscar 19 26 May 12:09:12 12:12:22 17° 57° (ENE) 12:15:31 437.125 CW, 437.150 USB
Uribyol 2 26 May 12:13:57 12:17:04 16° 56° (NE) 12:20:11 436.500 FM
OPAL 26 May 12:33:22 12:37:46 32° 298° (WNW) 12:42:06 ?
Oscar 16 26 May 12:47:18 12:52:02 37° 66° (ENE) 12:56:47 437.025 USB, Beacon 2401.1428
UOSAT-12 26 May 12:51:10 12:54:35 21° 327° (NNW) 12:58:02 437.025 FM, 437.400 FM
JAS-2 26 May 12:53:50 12:57:46 16° 312° (NW) 13:01:29 435.800 - 435.900 CW/SSB, 435.910 FM
Saudisat 1A 26 May 13:01:49 13:06:24 68° 50° (NE) 13:10:52 436.775 MHz
AO-27 26 May 13:05:26 13:10:14 40° 66° (ENE) 13:15:04 436.795 MHz FM
PCSat 26 May 13:06:33 13:09:25 14° 26° (NNE) 13:12:17 145.825 MHz
HO-68 26 May 13:09:06 13:12:34 14° 316° (NW) 13:16:02 435.675 MHz FM
ITAMSAT 1 26 May 13:11:00 13:15:51 43° 67° (ENE) 13:20:46 435.822 SSB
AO-Echo 26 May 13:20:49 13:24:04 19° 61° (ENE) 13:27:18 ?

Developed and maintained by Chris Peat, Heavens-Above GmbH. Please read the updated FAQ before sending e-mail. Imprint. DLR
